Location: Austin
(30.3000°N, 97.7500°W)
Time: 08:11:16
(UTC-05:00)

Cosmos 292 Rocket - Pass Details

Date: 19 September 2023
Orbit: 671 x 690 km, 74.0° (Epoch: 25 September)

Event Time Altitude Azimuth Distance (km) Brightness Sun altitude
Rises 06:09:53 0° 187° (S) 3,045 6.9 -15.3°
Reaches altitude 10° 06:12:12 10° 184° (S) 2,132 6.2 -14.8°
Maximum altitude 06:16:57 64° 104° (ESE) 762 4.2 -13.8°
Drops below altitude 10° 06:21:43 10° 23° (NNE) 2,137 6.8 -12.8°
Sets 06:24:02 0° 20° (NNE) 3,053 7.5 -12.3°
